Location: Betz
(49.1556°N, 2.9558°E)
Time: 01:39:55
(UTC+00:00)

SL-16 R/B - Pass Details

Date: 18 September 2019
Orbit: 840 x 849 km, 71.0° (Epoch: 15 October)

Event Time Altitude Azimuth Distance (km) Brightness Sun altitude
Rises 18:26:35 0° 335° (NNW) 3,415 5.9 -5.9°
Reaches altitude 10° 18:29:45 10° 352° (N) 2,478 4.9 -6.4°
Maximum altitude 18:33:49 20° 38° (NE) 1,885 3.8 -7.0°
Drops below altitude 10° 18:37:53 10° 84° (E) 2,475 4.0 -7.7°
Enters shadow 18:38:22 - 88° (E) 2,601 4.1 -7.8°
